This demonstration page uses our WeatherBlox Daily Observations layout. Learn more.

38.88101, -77.10428

Hourly Observations for February 24, 2018

Temp ( °F °C ) Dew Point ( °F °C ) Humidity (%) Winds ( mph kmh ) Pressure ( in mb ) Visibility ( mi km ) Precip ( " mm )
12:41 am 00:41 Cloudy with Fog 48 8.9 48 8.9 100 100 S 5 7 30.24 1024 0.5 0.80467 0 0
12:52 am 00:52 Cloudy with Fog 48 8.9 48 8.9 100 100 S 6 9 30.24 1024 0.25 0.402335 0 0
1:52 am 01:52 Cloudy with Fog 49 9.4 48 8.9 97 97 Calm 30.23 1024 0.25 0.402335 0 0
2:29 am 02:29 Mostly Cloudy with Fog 49 9.4 49 9.4 100 100 Calm 30.21 1023 1 1.60934 0 0
2:44 am 02:44 Mostly Cloudy with Fog 49 9.4 49 9.4 100 100 Calm 30.21 1023 1 1.60934 0 0
2:52 am 02:52 Mostly Cloudy with Fog 49 9.4 49 9.4 100 100 Calm 30.19 1022 1 1.60934 0 0
3:08 am 03:08 Mostly Cloudy with Fog 49 9.4 49 9.4 100 100 Calm 30.18 1022 1 1.60934 0 0
3:20 am 03:20 Mostly Cloudy with Fog 49 9.4 49 9.4 100 100 Calm 30.18 1022 1 1.60934 0 0
3:52 am 03:52 Mostly Cloudy with Fog 49 9.4 49 9.4 100 100 Calm 30.18 1022 1 1.60934 0 0
4:52 am 04:52 Mostly Cloudy with Fog 49 9.4 49 9.4 100 100 Calm 30.16 1021 0.25 0.402335 0 0
5:52 am 05:52 Mostly Cloudy with Fog 49 9.4 49 9.4 100 100 N 6 9 30.18 1022 0.25 0.402335 0 0
6:07 am 06:07 Mostly Cloudy with Fog 50 10 50 10 100 100 ENE 5 7 30.15 1021 0.25 0.402335 0 0
6:47 am 06:47 Mostly Cloudy with Fog 50 10 50 10 100 100 ENE 3 6 30.15 1021 1 1.60934 0 0
6:52 am 06:52 Mostly Cloudy with Fog 50 10 50 10 100 100 ENE 5 7 30.15 1021 1 1.60934 0 0
7:52 am 07:52 Mostly Cloudy with Fog 50 10 50 10 100 100 NE 3 6 30.17 1022 1 1.60934 0 0
8:52 am 08:52 Mostly Cloudy with Fog 51 10.6 51 10.6 100 100 NE 6 9 30.17 1022 1 1.60934 0 0
9:14 am 09:14 Mostly Cloudy with Fog 51 10.6 51 10.6 100 100 NE 7 11 30.18 1022 0.25 0.402335 0 0
9:52 am 09:52 Mostly Cloudy with Fog 51 10.6 51 10.6 100 100 NNE 7 11 30.17 1022 0.25 0.402335 0 0
10:03 am 10:03 Mostly Cloudy with Fog 51 10.6 51 10.6 100 100 NE 6 9 30.18 1022 0.5 0.80467 0 0
10:08 am 10:08 Cloudy with Mist and Fog 51 10.6 51 10.6 100 100 NE 6 9 30.18 1022 1 1.60934 0 0
10:52 am 10:52 Cloudy with Mist and Fog 51 10.6 51 10.6 100 100 NE 9 15 30.16 1021 1 1.60934 0 0
11:29 am 11:29 Cloudy with Mist and Fog 51 10.6 51 10.6 100 100 NNE 8 13 30.18 1022 3 4.82802 0 0
11:52 am 11:52 Cloudy 52 11.1 51 10.6 97 97 NNE 7 11 30.15 1021 7 11.26538 0 0
12:21 pm 12:21 Cloudy 52 11.1 51 10.6 97 97 ENE 8 13 30.12 1020 9 14.48406 0 0
12:52 pm 12:52 Cloudy 53 11.7 51 10.6 93 93 N 5 7 30.15 1021 10 16.0934 0 0
1:52 pm 13:52 Cloudy with Light Rain 53 11.7 51 10.6 93 93 N 8 13 30.13 1020 10 16.0934 0 0.0254
2:40 pm 14:40 Cloudy with Light Rain 52 11.1 50 10 93 93 NE 10 17 30.12 1020 7 11.26538 0 0.0254
2:52 pm 14:52 Cloudy with Light Rain 52 11.1 50 10 93 93 NE 8 13 30.12 1020 7 11.26538 0.01 0.254
3:52 pm 15:52 Cloudy with Light Rain 52 11.1 49 9.4 89 89 NE 10 17 30.13 1020 6 9.65604 0 0.0254
4:01 pm 16:01 Cloudy with Light Rain 52 11.1 49 9.4 89 89 NE 10 17 30.12 1020 7 11.26538 0 0.0254
4:34 pm 16:34 Cloudy with Light Rain 51 10.6 49 9.4 92 92 ENE 13 20 30.12 1020 4 6.43736 0.01 0.254
4:52 pm 16:52 Cloudy with Light Rain 51 10.6 49 9.4 92 92 ENE 14 22 30.11 1020 7 11.26538 0.02 0.508
5:52 pm 17:52 Cloudy with Light Rain 51 10.6 49 9.4 92 92 NE 10 17 30.12 1020 8 12.87472 0 0.0254
6:12 pm 18:12 Cloudy with Light Rain 51 10.6 48 8.9 89 89 NE 10 17 30.15 1021 10 16.0934 0 0.0254
6:38 pm 18:38 Cloudy 51 10.6 48 8.9 89 89 NE 9 15 30.15 1021 10 16.0934 0 0.0254
6:52 pm 18:52 Cloudy 51 10.6 48 8.9 89 89 NE 12 19 30.16 1021 10 16.0934 0 0.0254
7:52 pm 19:52 Cloudy 51 10.6 48 8.9 89 89 NE 9 15 30.14 1021 10 16.0934 0 0
7:59 pm 19:59 Cloudy 50 10 48 8.9 93 93 NE 8 13 30.15 1021 10 16.0934 0 0
8:52 pm 20:52 Cloudy 50 10 48 8.9 93 93 NE 6 9 30.15 1021 10 16.0934 0 0.0254
9:52 pm 21:52 Cloudy with Light Rain 50 10 47 8.3 89 89 NE 7 11 30.14 1021 10 16.0934 0 0.0254
9:58 pm 21:58 Cloudy with Heavy Rain 50 10 47 8.3 89 89 NE 8 13 30.15 1021 3 4.82802 0.01 0.254
10:06 pm 22:06 Cloudy with Light Rain 50 10 47 8.3 89 89 NNE 6 9 30.15 1021 5 8.0467 0.03 0.762
10:52 pm 22:52 Cloudy with Rain 50 10 47 8.3 89 89 NE 9 15 30.12 1020 4 6.43736 0.05 1.27
11:52 pm 23:52 Cloudy with Light Rain 49 9.4 48 8.9 97 97 NE 6 9 30.12 1020 7 11.26538 0.08 2.032

Powered by AerisWeather